STARLINK-2612 (48379 NORAD) Tracking and Keplerian Element Data

This shows tracking and keplerian element data for the satellite.

Feedback or suggestion? Click here.




ElementValue
Catalog48379
NameSTARLINK-2612
Epoch Orbit1459
Epoch Day215.02748705
Epoch Year2021
RAAN331.9065
Inclination53.0578
Eccentricity0.0001227
Argument of Perigee103.687
Mean Anonmoly256.4256
Mean Motion15.06389439
Decay Rate-9.99E-06
L11 48379U 21038AC 21215.02748705 -.00000999 00000-0 -48206-4 0 9992
L22 48379 53.0578 331.9065 0001227 103.6870 256.4256 15.06389439 14592

Live tracking and technical data element details for STARLINK-2612 (NORAD 48379). STARLINK-2612 can be tracked NOW for your location showing map with azimuth and elevation plus other details from your city location.

Track the satellite on the map from your city or location and see movement details for azimuth, elevation, latitude, longitude, range, height, and movement on the map or in text.







IsCatalogInMostPopularTable: catalog: 48379, numindb: 28
Update: records affected: 1



GetName: 48379 STARLINK-2612

Hit Count: updated at: Tue, 03 Aug 2021 20:51:35 GMT